[[{"header":{"parameterUnit":"m.s-1","parameterCategory":1,"la1":30.2991,"la2":30.254,"lo1":-89.0895,"lo2":-89.0444,"dy":0.0017,"dx":0.0017,"nx":28,"ny":28,"refTime":"2024-03-10T03:00:00:Z","depth":0,"parameterNumber":2,"parameterNumberName":"U-component_of_WINDS"},"data":[0,0,0,0,0,0,0,0,0,0,0,0,0,0,0,0,0,0,0,0,0,0,0,0,0,0,0,0,0,0,0,0,0,0,0,0,0,0,0,0,0,0,0,0,0,0,0,0,0,0,0,0,0,0,0,0,0,0,1.6204,1.6204,0,1.625,1.625,1.6251,1.6261,1.626,1.626,1.626,1.6306,1.6308,1.6309,0,0,0,0,0,0,0,0,0,0,0,0,0,1.6124,1.6126,1.6204,1.6204,1.6205,1.625,1.625,1.6251,1.6261,1.626,1.626,1.6259,1.6306,1.6307,1.6309,0,0,0,0,0,0,0,0,0,0,0,0,0,1.6163,1.6126,1.6203,1.6215,1.6217,1.6249,1.625,1.6251,1.6261,1.626,1.626,1.6259,1.6305,1.6307,1.6309,1.6334,0,0,1.6317,1.6318,0,0,0,0,0,0,0,0,1.6161,1.6166,1.6213,1.6214,1.6216,1.6249,1.6239,1.6279,1.6261,1.6244,1.626,1.6259,1.6287,1.6291,1.6301,1.6336,1.6338,1.6317,1.6318,1.6319,1.632,0,0,0,0,0,0,0,1.6158,1.6164,1.6222,1.6213,1.6215,1.6218,1.6223,1.6247,1.6268,1.6245,1.6246,1.6252,1.6288,1.6299,1.6302,1.6339,1.6317,1.6319,1.632,1.6321,1.6398,1.6398,0,0,0,0,0,0,1.6154,1.6162,1.622,1.6223,1.6187,1.622,1.6225,1.6239,1.6268,1.6272,1.6252,1.6252,1.6295,1.6299,1.6304,1.6335,1.6319,1.6321,1.6323,1.6397,1.6398,1.6398,0,0,0,0,0,0,1.6152,1.6159,1.6218,1.6193,1.6201,1.6222,1.6237,1.624,1.625,1.6273,1.6276,1.6259,1.6295,1.63,1.6327,1.6336,1.6322,1.6324,1.6396,1.6397,1.6398,1.6396,0,0,0,0,0,0,1.615,1.6158,1.6167,1.6193,1.6202,1.624,1.6237,1.6241,1.6254,1.6255,1.628,1.6284,1.6295,1.6323,1.6329,1.6339,1.6326,1.6395,1.6397,1.6398,1.6396,1.6397,1.6398,0,0,0,0,0,1.6147,1.6165,1.6168,1.6175,1.6214,1.6241,1.6246,1.6259,1.6255,1.6265,1.6279,1.6283,1.6335,1.6326,1.6332,1.6344,1.6395,1.6396,1.6398,1.6395,1.6397,1.6398,0,0,0,0,0,0,1.6139,1.6168,1.6172,1.6199,1.6217,1.6242,1.6255,1.626,1.628,1.6279,1.6294,1.63,1.6325,1.6337,1.6327,1.6369,1.6365,1.6367,1.636,1.6362,1.6364,1.636,1.6328,0,0,0,0,0,1.614,1.616,1.6184,1.6205,1.6215,1.6233,1.6245,1.6254,1.6274,1.6281,1.6298,1.6317,1.6338,1.6351,1.6371,1.6398,1.6404,1.6409,1.6411,1.6412,1.6413,1.643,1.6432,1.6403,1.6403,1.6403,0,0,1.6143,1.6162,1.6173,1.6204,1.622,1.624,1.624,1.6261,1.6276,1.6284,1.631,1.6323,1.6346,1.6373,1.6385,1.6383,1.6423,1.6413,1.6414,1.6415,1.6431,1.6434,1.6436,1.6404,1.6404,1.6404,0,0,1.6158,1.6174,1.6194,1.621,1.6234,1.6246,1.6251,1.6276,1.6285,1.6312,1.6319,1.6337,1.6373,1.6388,1.6401,1.6425,1.6429,1.6431,1.6438,1.6453,1.6456,1.6458,1.6466,1.6469,1.6433,1.6433,1.6433,0,1.6159,1.6189,1.6203,1.6224,1.6238,1.6248,1.6269,1.6283,1.6312,1.6322,1.632,1.6365,1.6381,1.6412,1.6418,1.6428,1.6434,1.6428,1.6454,1.6457,1.6459,1.6467,1.647,1.6433,1.6433,1.6433,1.6433,0,1.6189,1.621,1.6223,1.6251,1.6267,1.6287,1.6305,1.6319,1.6327,1.634,1.6367,1.6387,1.6412,1.642,1.6427,1.6453,1.6451,1.6451,1.6447,1.6461,1.6469,1.6473,1.6433,1.6433,1.6433,1.6433,0,0,1.6198,1.6236,1.624,1.6254,1.6282,1.6298,1.632,1.6345,1.6357,1.6377,1.6396,1.6426,1.6427,1.6442,1.6451,1.6465,1.6483,1.6464,1.6465,1.6467,1.6513,1.6512,1.6515,1.6487,1.6487,1.6488,1.6511,0,1.6217,1.6255,1.627,1.6301,1.6321,1.6332,1.6351,1.6371,1.6384,1.6403,1.6418,1.6439,1.6439,1.6448,1.6462,1.6478,1.6492,1.6476,1.6504,1.6505,1.6497,1.6519,1.6518,1.6539,1.6514,1.6515,1.6515,0,1.6243,1.6264,1.6298,1.6325,1.6334,1.635,1.6375,1.6393,1.6416,1.6425,1.6442,1.6451,1.6474,1.6469,1.6502,1.6491,1.6503,1.6513,1.6514,1.6516,1.651,1.6522,1.6546,1.6549,1.652,1.652,1.652,0,1.6246,1.6284,1.6309,1.632,1.6352,1.6364,1.6377,1.64,1.6414,1.6436,1.6446,1.647,1.6483,1.6502,1.6517,1.6512,1.6549,1.6545,1.6557,1.6556,1.6563,1.6562,1.6588,1.6572,1.6572,1.6572,1.6572,0,1.6265,1.6285,1.6311,1.6327,1.635,1.6367,1.639,1.6404,1.6424,1.6443,1.6454,1.6472,1.6492,1.6512,1.6524,1.655,1.6556,1.6564,1.6566,1.6562,1.6561,1.657,1.6568,1.6573,1.6573,1.6572,1.6572,0,1.6272,1.629,1.6319,1.6347,1.6355,1.6371,1.6395,1.6411,1.6426,1.6449,1.6456,1.6478,1.6503,1.6521,1.6552,1.6561,1.6588,1.6591,1.6581,1.6582,1.6593,1.6591,1.6625,1.663,1.6611,1.6611,1.6611,0,1.6282,1.6298,1.6329,1.6343,1.6356,1.6378,1.6393,1.6411,1.6427,1.6455,1.6467,1.6493,1.6514,1.6553,1.6572,1.6597,1.66,1.6611,1.6604,1.66,1.66,1.6599,1.6601,1.6611,1.6611,1.6611,1.6612,0,1.6299,1.6307,1.6329,1.6354,1.6372,1.6393,1.6413,1.6424,1.6446,1.6462,1.6488,1.6505,1.6538,1.6563,1.659,1.6604,1.6612,1.6614,1.6618,1.6613,1.6606,1.661,1.6583,1.6613,1.6612,1.6612,1.6612,1.6612,1.6308,1.6323,1.6347,1.6371,1.6388,1.6408,1.6424,1.6442,1.6463,1.6492,1.6501,1.6528,1.6552,1.6589,1.6604,1.6625,1.6625,1.663,1.6632,1.6633,1.6633,1.6603,1.663,1.663,1.663,1.663,1.663,0,1.6324,1.6341,1.6363,1.6392,1.6411,1.6417,1.6441,1.6456,1.648,1.6502,1.6523,1.6553,1.6578,1.66,1.6626,1.6639,1.6643,1.6645,1.6644,1.6648,1.6631,1.6625,1.6642,1.6642,1.6642,1.6642,1.6642,1.6642,1.6335,1.6361,1.6373,1.6408,1.6425,1.6451,1.6464,1.6482,1.65,1.6533,1.6554,1.6569,1.6591,1.6619,1.6643,1.6649,1.6658,1.6659,1.6666,1.665,1.6649,1.6647,1.6641,1.6661,1.6661,1.668,1.6681,1.6681]},{"header":{"parameterUnit":"m.s-1","parameterCategory":1,"la1":30.2991,"la2":30.254,"lo1":-89.0895,"lo2":-89.0444,"dy":0.0017,"dx":0.0017,"nx":28,"ny":28,"refTime":"2024-03-10T03:00:00:Z","depth":0,"parameterNumber":3,"parameterNumberName":"V-component_of_WINDS"},"data":[0,0,0,0,0,0,0,0,0,0,0,0,0,0,0,0,0,0,0,0,0,0,0,0,0,0,0,0,0,0,0,0,0,0,0,0,0,0,0,0,0,0,0,0,0,0,0,0,0,0,0,0,0,0,0,0,0,0,-7.6505,-7.6507,0,-7.6674,-7.6676,-7.6678,-7.662,-7.6616,-7.6612,-7.6609,-7.6777,-7.6784,-7.6792,0,0,0,0,0,0,0,0,0,0,0,0,0,-7.6125,-7.6132,-7.6505,-7.6507,-7.6509,-7.6674,-7.6676,-7.6679,-7.662,-7.6616,-7.6611,-7.6607,-7.6774,-7.6783,-7.6793,0,0,0,0,0,0,0,0,0,0,0,0,0,-7.6292,-7.6135,-7.6504,-7.65,-7.6501,-7.6674,-7.6677,-7.6679,-7.6621,-7.6616,-7.661,-7.6605,-7.6771,-7.6782,-7.6794,-7.6979,0,0,-7.683,-7.6836,0,0,0,0,0,0,0,0,-7.6282,-7.6306,-7.6498,-7.65,-7.6502,-7.662,-7.6604,-7.678,-7.6623,-7.6576,-7.6609,-7.6602,-7.6729,-7.6744,-7.6788,-7.6987,-7.6994,-7.6832,-7.6839,-7.6844,-7.6847,0,0,0,0,0,0,0,-7.6271,-7.6298,-7.6571,-7.6501,-7.6504,-7.6488,-7.6505,-7.6637,-7.6681,-7.6579,-7.6575,-7.6597,-7.6729,-7.6776,-7.6791,-7.6997,-7.6831,-7.6842,-7.6849,-7.6854,-7.7358,-7.7364,0,0,0,0,0,0,-7.6259,-7.6289,-7.6566,-7.6577,-7.6377,-7.6499,-7.6519,-7.6588,-7.668,-7.6688,-7.6601,-7.6593,-7.6759,-7.6777,-7.6797,-7.7021,-7.6844,-7.6855,-7.6862,-7.7352,-7.7359,-7.7366,0,0,0,0,0,0,-7.6251,-7.6284,-7.6559,-7.6432,-7.6466,-7.6512,-7.659,-7.6594,-7.6642,-7.6696,-7.6703,-7.6642,-7.6755,-7.678,-7.6935,-7.7026,-7.686,-7.6871,-7.7344,-7.7354,-7.7363,-7.747,0,0,0,0,0,0,-7.6241,-7.6282,-7.6354,-7.6434,-7.6473,-7.6697,-7.6595,-7.6602,-7.6663,-7.6655,-7.6737,-7.6745,-7.6753,-7.6918,-7.6947,-7.7039,-7.688,-7.7336,-7.7349,-7.736,-7.7458,-7.7482,-7.7501,0,0,0,0,0,-7.6227,-7.6376,-7.6358,-7.6392,-7.6564,-7.6702,-7.6724,-7.6732,-7.6671,-7.6743,-7.6778,-7.6742,-7.7011,-7.6934,-7.6966,-7.7064,-7.7331,-7.7345,-7.7359,-7.7448,-7.7477,-7.7501,0,0,0,0,0,0,-7.6302,-7.6386,-7.6367,-7.6546,-7.6618,-7.6692,-7.6783,-7.6761,-7.685,-7.6838,-7.6842,-7.6861,-7.7021,-7.7057,-7.697,-7.7248,-7.7161,-7.7183,-7.7219,-7.7246,-7.7267,-7.7255,-7.689,0,0,0,0,0,-7.634,-7.6447,-7.6513,-7.6665,-7.6702,-7.6737,-7.6797,-7.6797,-7.6871,-7.69,-7.6946,-7.7017,-7.7118,-7.7184,-7.7279,-7.7463,-7.748,-7.7546,-7.7567,-7.7585,-7.7603,-7.7704,-7.7734,-7.7412,-7.7412,-7.7412,0,0,-7.6418,-7.6477,-7.6544,-7.6682,-7.6737,-7.6847,-7.6762,-7.6881,-7.6962,-7.6917,-7.7068,-7.7104,-7.7183,-7.7354,-7.7432,-7.739,-7.7696,-7.7603,-7.7616,-7.7625,-7.7722,-7.7752,-7.7779,-7.7422,-7.742,-7.7418,0,0,-7.6618,-7.6673,-7.6806,-7.6864,-7.695,-7.6973,-7.7005,-7.7083,-7.7106,-7.7258,-7.7227,-7.7322,-7.7495,-7.7553,-7.7605,-7.7829,-7.7799,-7.7859,-7.7972,-7.8071,-7.8096,-7.8119,-7.8199,-7.8228,-7.7877,-7.7878,-7.7878,0,-7.6704,-7.6869,-7.6876,-7.7,-7.7061,-7.7028,-7.7162,-7.7217,-7.7329,-7.7372,-7.7323,-7.7541,-7.7592,-7.7777,-7.7832,-7.7875,-7.7911,-7.785,-7.8092,-7.8115,-7.8136,-7.8213,-7.8243,-7.7884,-7.7884,-7.7883,-7.7882,0,-7.6971,-7.7087,-7.7183,-7.7296,-7.7368,-7.7495,-7.7521,-7.7593,-7.7587,-7.7614,-7.7769,-7.7829,-7.7937,-7.798,-7.7974,-7.8165,-7.8136,-7.809,-7.8003,-7.8173,-7.8246,-7.8275,-7.7894,-7.7892,-7.789,-7.7888,0,0,-7.7222,-7.7338,-7.7374,-7.7425,-7.7518,-7.7606,-7.7732,-7.784,-7.7902,-7.798,-7.8086,-7.8234,-7.8193,-7.8252,-7.8253,-7.8339,-7.8513,-7.8282,-7.8284,-7.8324,-7.8728,-7.8762,-7.8796,-7.8494,-7.85,-7.8504,-7.8721,0,-7.7429,-7.7654,-7.7665,-7.7868,-7.7975,-7.7945,-7.8055,-7.8124,-7.8152,-7.8246,-7.8276,-7.8382,-7.8319,-7.8355,-7.8439,-7.8474,-7.8594,-7.8459,-7.8592,-7.8596,-7.8574,-7.8834,-7.8871,-7.9073,-7.8749,-7.8754,-7.8758,0,-7.7701,-7.7792,-7.8007,-7.8086,-7.8131,-7.823,-7.8331,-7.8421,-7.8497,-7.8512,-7.858,-7.8568,-7.8696,-7.8605,-7.8781,-7.8689,-7.8744,-7.8769,-7.8777,-7.879,-7.8688,-7.8855,-7.9137,-7.9168,-7.8802,-7.8798,-7.8795,0,-7.7864,-7.8039,-7.819,-7.8235,-7.8331,-7.8402,-7.8445,-7.8516,-7.8581,-7.8668,-7.8709,-7.8809,-7.8864,-7.8941,-7.8956,-7.8888,-7.9133,-7.9042,-7.9148,-7.9148,-7.9201,-7.9198,-7.9497,-7.9236,-7.9235,-7.9235,-7.9234,0,-7.8095,-7.8228,-7.8265,-7.8359,-7.8506,-7.8517,-7.8662,-7.87,-7.8764,-7.8864,-7.8843,-7.8936,-7.895,-7.9046,-7.9058,-7.9203,-7.9227,-7.9242,-7.9244,-7.9245,-7.9243,-7.9281,-7.9268,-7.9243,-7.9241,-7.9239,-7.9238,0,-7.8302,-7.8332,-7.8496,-7.8575,-7.8598,-7.8703,-7.877,-7.8859,-7.8885,-7.9011,-7.9041,-7.9083,-7.9196,-7.9219,-7.935,-7.9358,-7.9531,-7.9518,-7.9506,-7.9505,-7.961,-7.96,-7.9945,-7.9991,-7.9698,-7.9701,-7.9703,0,-7.8448,-7.855,-7.8641,-7.8707,-7.8754,-7.8861,-7.8928,-7.8942,-7.9012,-7.9108,-7.9185,-7.9296,-7.9385,-7.9566,-7.9607,-7.9707,-7.9697,-7.9811,-7.9712,-7.971,-7.97,-7.9695,-7.9705,-7.983,-7.9833,-7.9836,-7.9838,0,-7.8704,-7.8715,-7.8813,-7.8918,-7.8998,-7.908,-7.9158,-7.9213,-7.9237,-7.9317,-7.9433,-7.9503,-7.9639,-7.9749,-7.9851,-7.9892,-7.987,-7.9869,-7.9899,-7.9901,-7.9891,-7.9899,-7.9559,-7.9861,-7.9859,-7.9857,-7.9856,-7.9855,-7.8886,-7.8976,-7.9055,-7.9165,-7.9226,-7.9299,-7.9388,-7.9427,-7.9525,-7.9639,-7.964,-7.9767,-7.9841,-7.9976,-8.0025,-8.0123,-8.0087,-8.013,-8.0141,-8.0152,-8.0162,-7.9875,-8.0141,-8.014,-8.014,-8.0139,-8.0139,0,-7.9142,-7.9192,-7.9293,-7.9404,-7.9491,-7.9465,-7.955,-7.9624,-7.9737,-7.9809,-7.9898,-8.0032,-8.0139,-8.0189,-8.0294,-8.0364,-8.0356,-8.0391,-8.0386,-8.0396,-8.0188,-8.0152,-8.0395,-8.0395,-8.0395,-8.0395,-8.0395,-8.0395,-7.9285,-7.9437,-7.9457,-7.9638,-7.9686,-7.9812,-7.9863,-7.9931,-7.9989,-8.0141,-8.0231,-8.0263,-8.0327,-8.0437,-8.0534,-8.0545,-8.0585,-8.0626,-8.0632,-8.0437,-8.0411,-8.0386,-8.0352,-8.0634,-8.0634,-8.0833,-8.0835,-8.0836]}]]